Theta_e
361 362 363 364 364 364 364 363 363 359 360 360 358 358 360 359 359 361 361 360 359 357 355 356 354 354 357 358 357 355 355 356 356 355 354 354 354 352 351 347 347 347 347
361 361 362 361 363 364 364 364 363 363 362 361 359 362 361 359 363 363 362 362 359 356 356 357 358 360 359 356 356 355 358 355 354 357 356 353 354 354 351 346 347 345 345
361 361 361 361 362 363 362 362 361 361 361 359 361 360 361 362 362 361 361 362 363 359 363 359 360 359 359 359 358 357 358 358 358 355 357 356 352 354 354 352 352 350 344
362 361 361 360 360 360 357 355 354 348 347 331 342 359 358 359 359 358 358 358 361 362 362 363 363 362 361 359 360 361 358 359 358 359 358 358 354 356 353 355 354 353 351
362 360 359 360 360 357 349 346 346 360 360 359 357 357 356 354 352 348 349 348 353 359 361 362 364 362 362 361 360 362 360 360 361 359 357 358 357 357 356 355 353 352 351
359 363 365 357 356 354 354 354 360 361 359 356 356 353 344 336 339 338 337 343 349 355 361 364 365 364 363 363 363 361 360 359 361 359 357 358 357 355 354 354 355 354 356
364 367 368 367 357 355 362 362 364 359 350 342 338 338 338 333 333 336 337 340 344 351 354 359 360 364 363 362 362 362 360 357 360 358 358 357 356 355 353 353 353 354 352
359 365 368 366 366 365 357 348 346 345 341 333 330 332 333 332 333 332 335 337 340 344 347 357 361 360 362 363 363 362 361 355 354 358 358 357 356 356 355 352 353 352 353
354 358 365 367 366 364 355 349 352 341 337 330 325 329 330 327 324 324 328 333 333 344 352 359 361 363 363 362 364 364 364 363 360 358 357 355 354 355 357 357 355 356 356
352 354 355 355 358 360 359 360 358 353 342 336 339 343 344 343 347 349 349 344 343 347 361 361 362 362 364 363 363 363 362 360 359 358 358 359 355 356 354 354 355 354 354
349 354 355 354 356 355 355 356 358 358 355 351 354 356 354 351 348 347 351 352 352 357 358 362 365 365 363 361 356 359 361 361 358 356 356 355 356 356 355 354 355 353 351
341 343 344 348 354 351 354 348 346 353 354 355 357 356 348 335 333 343 347 347 341 350 356 357 360 364 364 363 362 359 361 361 357 356 354 353 353 353 352 354 353 352 350
340 341 342 343 345 347 355 353 357 354 354 352 352 353 349 345 344 347 348 341 338 336 335 349 358 358 359 360 361 361 360 359 357 351 351 352 354 354 353 352 349 348 347
340 340 341 342 342 342 343 346 356 352 352 352 351 348 345 345 343 349 345 342 339 344 346 349 351 353 353 355 358 356 356 357 357 353 352 352 355 354 349 348 347 346 347
338 338 339 340 340 339 339 339 340 343 351 348 347 346 346 346 342 340 345 342 343 345 355 351 349 349 349 348 349 350 348 351 351 354 353 354 353 349 346 343 342 343 342
336 336 336 337 337 337 337 337 337 336 333 334 341 344 343 342 341 337 336 341 335 330 339 350 349 348 347 348 348 346 347 350 351 351 352 351 350 348 345 345 343 342 342
332 332 333 335 336 338 338 336 335 334 332 331 332 334 336 337 341 340 339 336 334 332 336 344 347 348 349 350 349 350 351 350 350 350 350 348 346 345 343 345 340 339 340
331 333 332 331 332 334 334 336 336 334 334 334 335 334 332 331 336 339 339 335 334 334 336 341 343 344 347 348 349 348 349 349 348 349 348 347 345 344 344 343 341 341 340
330 330 331 331 332 332 333 336 336 335 335 335 335 335 333 333 333 336 333 335 336 334 336 337 340 343 345 346 348 349 350 349 348 348 347 346 344 344 341 339 336 335 337
331 330 329 330 330 330 330 331 334 335 335 335 337 337 335 334 334 333 332 333 335 335 335 339 341 342 344 348 351 351 350 349 347 346 345 344 343 339 337 334 331 329 327
330 330 331 331 331 330 331 331 331 333 334 334 335 335 334 337 336 336 336 332 334 334 335 338 341 347 347 350 350 347 347 346 345 343 342 339 336 334 333 329 324 320 319
331 331 331 331 331 332 332 333 332 334 334 334 335 335 335 335 335 338 339 338 337 337 337 340 344 348 349 349 347 346 345 344 343 340 337 333 331 329 324 321 318 313 312
327 328 329 330 330 331 331 332 332 333 334 334 335 335 336 337 337 336 337 338 339 340 339 344 348 347 345 346 345 343 341 340 337 334 331 329 326 321 318 315 312 311 311
319 320 320 320 321 321 322 324 328 330 332 333 333 333 334 336 334 335 335 332 334 329 341 345 345 344 343 341 340 339 336 333 331 328 326 322 318 314 311 311 310 311 310
314 314 314 314 314 314 315 317 319 321 326 331 332 332 331 333 331 331 330 327 328 330 338 337 336 336 335 330 329 328 328 325 322 320 316 313 311 311 310 311 310 310 310
309 309 309 310 311 311 312 313 315 318 320 323 326 329 328 329 326 327 327 326 325 319 323 326 325 322 320 320 319 319 320 315 312 311 310 310 311 310 310 310 309 309 309
Wind_Speed
22 22 25 23 22 23 22 22 20 23 17 14 16 17 16 18 19 19 22 21 20 19 23 23 23 17 15 14 13 13 15 9 10 10 7 9 12 9 9 8 11 13 17
19 19 19 21 21 22 24 22 20 19 18 19 19 19 21 20 19 20 22 23 22 24 25 22 21 18 17 17 15 13 16 13 15 14 11 10 13 14 10 11 13 13 15
14 13 15 17 17 15 20 22 18 18 15 16 19 19 24 21 19 21 24 25 25 25 24 24 21 19 21 19 17 18 16 16 16 15 13 11 15 16 14 12 14 16 15
11 12 15 17 17 17 19 21 15 11 10 24 31 16 16 15 15 18 20 25 26 25 26 25 24 23 23 22 20 21 19 14 16 17 16 13 13 20 19 18 19 20 20
1 8 11 12 14 17 19 16 18 10 7 11 15 11 11 6 5 15 19 25 25 28 26 27 27 27 26 24 22 20 18 19 16 17 16 14 13 13 18 22 23 21 21
4 6 6 16 18 20 15 12 11 11 14 12 12 11 6 2 3 4 14 23 27 25 27 26 28 28 27 27 27 25 17 18 18 16 17 17 17 17 19 22 21 14 7
4 4 6 10 16 14 12 12 10 12 7 7 7 8 8 1 5 8 8 23 30 30 28 27 26 25 28 28 28 28 26 24 20 16 17 18 12 14 18 13 16 11 10
3 2 1 7 10 9 6 3 5 8 10 9 7 12 4 9 11 21 10 20 30 39 46 32 25 25 27 17 22 21 24 28 27 25 23 21 15 16 15 17 17 14 13
2 2 3 7 9 7 9 10 11 10 14 9 4 1 6 7 8 10 20 24 16 38 37 34 28 27 25 24 20 22 19 19 19 22 20 25 23 21 15 14 14 14 12
4 2 3 6 5 8 13 16 13 13 13 14 16 15 15 17 18 17 16 23 38 46 31 29 26 30 29 27 26 26 21 19 17 16 19 26 22 23 22 22 17 17 17
12 10 10 13 11 11 14 11 12 13 15 16 16 17 19 19 18 18 18 25 28 23 22 20 18 25 30 23 23 28 25 19 16 16 13 14 20 19 21 24 24 24 23
13 15 15 15 15 17 16 21 20 17 16 17 18 19 22 25 24 23 23 20 18 22 25 20 20 19 15 13 19 25 24 21 18 16 12 14 20 22 23 22 20 21 19
15 16 18 19 20 20 20 23 19 21 20 20 20 21 23 23 24 27 25 18 16 19 19 19 23 24 25 22 20 22 22 23 23 20 19 19 20 16 16 16 19 19 17
16 18 20 22 23 25 24 24 23 26 24 24 23 23 23 23 23 28 28 21 15 15 15 14 13 12 16 17 15 15 17 21 24 23 21 20 18 17 16 15 13 12 10
17 19 21 22 24 26 27 27 26 30 27 28 28 27 23 24 26 24 27 23 17 15 14 11 9 10 10 14 15 14 13 15 16 19 15 15 13 13 12 11 11 13 11
20 21 22 23 22 22 23 23 28 38 37 38 43 41 38 28 24 15 10 15 16 14 13 13 14 14 15 16 17 21 17 16 16 15 16 15 14 12 12 11 12 13 11
22 24 25 26 25 23 24 26 27 30 35 36 36 42 43 46 41 34 33 29 22 17 16 16 16 17 18 17 16 19 19 19 19 18 19 18 15 12 13 12 12 11 8
26 26 26 26 28 28 29 29 26 26 26 27 27 29 33 34 45 48 38 30 19 20 22 20 21 21 21 23 25 25 22 19 22 21 21 18 15 15 13 14 15 11 14
29 30 29 26 28 30 29 28 27 27 27 24 22 25 27 28 30 38 35 34 28 23 22 26 27 25 25 26 27 29 27 26 24 22 20 19 18 18 15 9 13 12 12
29 30 33 34 32 32 31 30 26 25 25 26 25 25 26 24 21 24 31 34 30 29 27 26 26 26 26 27 24 23 21 25 24 22 19 19 19 16 16 16 16 11 9
28 29 30 30 29 29 28 28 31 29 27 25 26 28 31 30 28 25 25 29 30 30 29 27 22 23 27 24 20 19 24 25 23 19 20 16 15 8 13 12 12 11 11
29 29 31 32 33 32 31 30 29 27 25 25 28 27 25 24 24 23 23 24 28 31 27 23 21 22 23 20 21 23 27 24 21 21 19 17 14 12 12 12 12 10 8
28 29 30 31 32 33 34 32 30 30 29 27 28 27 23 20 17 17 20 27 21 25 26 22 17 20 21 23 24 27 24 20 19 19 18 16 15 15 12 11 11 11 11
33 34 34 34 32 33 32 31 30 33 33 29 27 23 22 22 20 13 11 7 15 26 18 15 19 23 24 23 24 20 24 21 20 18 19 17 16 15 13 12 9 12 10
31 31 31 31 31 32 30 28 30 32 28 25 21 18 17 17 10 9 10 11 19 17 17 20 23 24 24 25 29 29 28 26 23 20 18 16 16 14 14 12 12 10 9
29 31 33 33 33 32 30 28 27 25 23 28 24 22 18 15 13 13 14 15 19 19 26 28 28 29 29 29 30 28 24 22 23 20 20 20 16 12 9 13 8 9 9
Wind_Direction
204 213 204 207 217 218 228 237 238 239 243 229 249 238 238 243 240 240 244 245 246 252 257 254 259 259 259 260 251 248 229 227 259 266 229 209 208 226 212 204 206 227 230
202 207 210 203 207 214 217 225 228 232 239 252 249 252 253 248 247 247 250 249 255 256 252 257 262 265 262 261 250 241 223 233 227 251 250 239 214 219 221 197 195 205 224
193 215 215 201 210 218 217 219 223 235 240 264 251 248 255 250 249 251 254 256 252 252 257 257 257 256 254 245 248 246 230 225 233 243 263 237 225 208 205 217 209 211 213
175 209 213 218 213 223 241 244 222 262 239 328 267 258 268 268 282 288 289 274 260 258 258 260 255 251 251 251 249 242 239 227 230 233 244 243 227 222 211 205 214 221 225
207 203 196 206 227 228 243 240 247 281 260 243 239 245 257 272 338 326 325 316 294 270 259 257 257 256 253 249 248 241 237 228 228 226 239 245 230 228 204 223 221 224 231
221 260 235 204 215 227 231 255 270 278 264 253 251 251 231 110 237 295 344 335 316 295 262 257 257 256 256 253 249 243 245 235 232 237 230 233 230 233 238 234 226 210 227
192 224 232 233 215 228 234 237 229 247 235 213 220 232 236 11 342 327 337 311 316 313 297 265 259 256 254 244 240 247 241 240 239 242 252 261 272 256 245 251 258 242 260
238 152 181 210 216 204 220 223 187 231 223 229 250 250 235 85 59 53 23 234 282 302 291 278 265 262 268 251 241 238 236 238 237 238 247 256 256 263 253 250 263 269 267
278 345 175 184 207 210 243 241 232 246 219 224 175 103 156 103 46 76 61 63 343 291 281 269 265 262 260 255 232 226 229 237 239 244 245 249 252 252 259 245 240 243 255
276 315 301 274 261 254 246 239 228 230 222 239 258 263 258 263 283 287 272 233 233 261 267 265 264 260 254 251 247 227 217 226 228 238 255 243 245 247 248 248 243 241 252
343 343 324 301 311 264 270 266 243 233 239 244 249 267 273 270 267 269 268 248 243 263 278 276 278 266 261 258 267 257 238 230 224 227 229 242 249 252 256 253 249 251 255
314 306 303 299 290 274 268 259 258 251 247 252 258 262 264 267 261 248 241 256 263 259 266 275 286 291 297 274 242 246 243 235 229 231 240 228 243 249 250 248 253 261 254
296 292 292 293 291 287 281 260 255 244 242 245 242 241 249 261 266 257 227 236 258 264 265 257 266 281 287 289 275 261 250 235 228 223 231 236 240 244 247 247 245 253 258
277 278 279 281 284 284 280 277 259 248 245 240 239 241 247 247 254 226 219 231 239 254 266 258 270 280 286 279 267 252 242 236 227 222 229 243 244 248 245 242 237 231 233
289 287 284 277 271 269 269 267 265 267 260 247 249 249 247 243 240 247 220 221 225 237 226 251 257 241 246 251 240 234 229 219 218 211 217 212 220 226 218 213 224 225 216
296 288 284 285 281 274 269 269 262 257 256 260 263 267 273 275 266 266 231 215 225 240 250 248 240 230 221 226 241 237 228 221 214 214 207 204 206 201 195 198 207 220 226
286 285 285 287 284 286 282 266 260 268 271 272 266 261 257 260 263 266 262 257 253 247 239 251 258 235 220 222 224 233 223 213 211 207 199 198 198 201 202 205 219 217 236
275 274 275 281 278 272 274 278 277 267 269 270 270 265 261 263 263 260 253 247 230 234 235 233 248 248 240 229 230 244 245 223 217 211 206 196 196 207 197 207 209 209 155
280 277 275 273 275 280 278 261 268 274 279 266 264 255 262 269 265 255 240 240 239 235 230 229 231 241 241 235 234 236 239 237 222 204 192 197 202 192 195 204 155 153 169
280 282 282 273 268 266 265 266 265 266 269 269 271 263 264 269 262 255 244 238 234 234 233 231 224 230 236 235 230 228 231 203 191 194 192 193 190 187 193 168 157 162 161
281 278 274 272 268 266 260 258 260 263 258 265 273 259 262 254 235 233 226 231 230 228 233 237 240 227 231 232 227 226 195 184 189 183 180 174 165 175 153 145 132 113 117
291 288 282 276 273 272 270 270 271 269 266 266 276 277 281 279 273 242 235 229 227 224 223 227 229 233 224 215 196 190 180 169 174 168 160 149 155 144 136 132 130 127 131
297 289 285 280 276 273 270 266 263 257 253 254 260 264 282 285 296 290 274 255 236 229 204 214 216 217 207 189 184 167 162 162 161 150 147 146 148 142 143 145 149 150 139
299 291 286 282 278 274 271 269 270 266 254 250 250 254 262 277 288 290 246 51 295 268 254 186 176 172 163 160 159 164 163 153 148 144 145 147 150 149 152 153 152 131 139
292 288 283 278 275 272 267 261 260 255 262 241 235 245 263 275 222 200 187 207 213 231 169 157 154 154 152 151 144 139 146 144 136 141 147 152 149 151 158 159 147 155 132
306 298 288 280 271 264 258 255 256 248 250 243 233 235 250 211 183 157 166 163 183 165 142 143 145 143 141 135 132 132 135 139 138 140 146 143 140 139 133 134 132 142 136